1487181600.76,47718,14.44,74902.3,-3.13,-30.89,-31.05,0,*59
1487181602.04,47719,14.44,74900.0,-3.13,-30.95,-31.11,0,*50
1487181603.3,47720,14.44,74900.5,-3.13,-30.89,-31.05,0,*52
1487181604.56,47721,14.44,74896.8,-3.13,-30.89,-31.05,0,*53
1487181605.79,47722,14.44,74902.8,-3.13,-31.05,-31.29,0,*5B
1487181607.05,47723,14.44,74900.3,-3.13,-30.95,-31.05,0,*5C
1487181608.34,47724,14.44,74900.0,-3.13,-31.11,-31.23,0,*52
1487181609.58,47725,14.44,74898.8,-3.13,-31.29,-31.45,0,*58
1487181610.86,47726,14.44,74896.3,-3.13,-31.39,-31.61,0,*5C
1487181612.11,47727,14.44,74892.0,-3.11,-31.39,-31.73,0,*5C
1487181613.34,47728,14.44,74894.3,-3.11,-31.45,-31.73,0,*58
1487181614.58,47729,14.44,74894.8,-3.11,-31.45,-31.61,0,*5A
1487181615.82,47730,14.44,74892.3,-3.11,-31.45,-31.73,0,*51
1487181617.06,47731,14.44,74898.3,-3.11,-31.45,-31.61,0,*53
1487181618.32,47732,14.44,74898.3,-3.11,-31.11,-31.39,0,*5C
1487181619.6,47733,14.44,74896.0,-3.13,-31.39,-31.61,0,*58
1487181620.86,47734,14.44,74894.5,-3.13,-31.45,-31.73,0,*57
1487181622.12,47735,14.44,74896.3,-3.13,-31.45,-31.73,0,*56
1487181623.39,47736,14.44,74896.5,-3.17,-31.51,-31.73,0,*54
1487181624.65,47737,14.44,74898.0,-3.17,-31.51,-31.67,0,*50
1487181625.93,47738,14.44,74898.3,-3.13,-30.95,-31.11,0,*53
1487181627.22,47739,14.44,74898.8,-3.13,-31.23,-31.39,0,*54
1487181628.5,47740,14.44,74896.8,-3.13,-31.39,-31.73,0,*5F
1487181629.78,47741,14.44,74898.5,-3.13,-31.11,-31.39,0,*5A
1487181631.02,47742,14.44,74902.3,-3.11,-31.29,-31.39,0,*50
1487181632.28,47743,14.44,74900.3,-3.11,-31.23,-31.39,0,*5B
1487181633.55,47744,14.44,74900.0,-3.13,-31.23,-31.29,0,*5F
1487181634.83,47745,14.44,74902.3,-3.13,-31.23,-31.39,0,*5F
1487181636.12,47746,14.44,74902.3,-3.13,-31.23,-31.39,0,*5C
1487181637.36,47747,14.44,74902.5,-3.13,-31.29,-31.45,0,*5C
1487181638.62,47748,14.44,74902.0,-3.13,-31.29,-31.39,0,*58
1487181639.86,47749,14.44,74898.5,-3.11,-31.11,-31.45,0,*5B
1487181641.1,47750,14.44,74902.0,-3.11,-31.11,-31.29,0,*59
1487181642.36,47751,14.44,74902.3,-3.11,-30.89,-31.11,0,*53
1487181643.65,47752,14.44,74900.8,-3.13,-30.77,-31.11,0,*53
1487181644.88,47753,14.44,74902.5,-3.11,-30.89,-31.05,0,*54
1487181646.11,47754,14.44,74902.5,-3.11,-30.95,-31.05,0,*5E
1487181647.35,47755,14.44,74900.5,-3.09,-31.01,-31.17,0,*59
1487181648.61,47756,14.44,74900.3,-3.09,-30.73,-31.01,0,*59
1487181649.9,47757,14.44,74900.0,-3.09,-30.73,-30.89,0,*59
1487181651.16,47758,14.44,74902.3,-3.11,-31.23,-31.39,0,*51
1487181652.4,47759,14.44,74896.8,-3.09,-31.05,-31.17,0,*51
1487181653.66,47760,14.44,74898.5,-3.09,-30.89,-31.05,0,*5D
1487181654.87,47761,14.44,74898.0,-3.11,-31.29,-31.45,0,*5A
1487181656.17,47762,14.44,74898.8,-3.09,-31.23,-31.39,0,*51
1487181657.42,47763,14.44,74898.3,-3.09,-31.33,-31.57,0,*59
1487181658.71,47764,14.44,74896.3,-3.09,-31.23,-31.51,0,*59
1487181659.97,47765,14.44,74898.3,-3.09,-31.05,-31.23,0,*59
1487181661.21,47766,14.44,74900.0,-3.09,-31.05,-31.17,0,*5D
1487181662.44,47767,14.44,74898.3,-3.09,-30.83,-31.05,0,*50
1487181663.67,47768,14.44,74892.5,-3.07,-30.55,-31.01,0,*5E
1487181664.92,47769,14.44,74888.3,-3.07,-30.67,-30.89,0,*5F
1487181666.16,47770,14.44,74890.5,-3.07,-30.51,-30.67,0,*52
1487181667.4,47771,14.44,74888.3,-3.07,-30.61,-30.83,0,*5A
1487181668.66,47772,14.44,74884.3,-3.07,-30.55,-30.89,0,*54
1487181669.9,47773,14.44,74884.3,-3.07,-30.67,-30.89,0,*54
1487181671.15,47774,14.44,74882.3,-3.05,-30.77,-31.01,0,*51
1487181672.41,47775,14.44,74886.8,-3.05,-30.95,-31.17,0,*5B
1487181673.64,47776,14.44,74890.3,-3.05,-31.01,-31.17,0,*54
1487181674.9,47777,14.44,74888.5,-3.05,-31.11,-31.29,0,*59
1487181676.14,47778,14.44,74886.8,-3.03,-31.05,-31.23,0,*5F
1487181677.4,47779,14.44,74888.0,-3.03,-30.89,-31.23,0,*5B
1487181678.63,47780,14.44,74890.3,-3.05,-31.17,-31.33,0,*5C
1487181679.86,47781,14.44,74890.3,-3.05,-31.29,-31.67,0,*51
1487181681.1,47782,14.44,74888.0,-3.05,-31.29,-31.45,0,*52
1487181682.36,47783,14.44,74884.3,-3.05,-31.11,-31.29,0,*52
1487181683.59,47784,14.44,74888.8,-3.05,-31.29,-31.29,0,*5E
1487181684.83,47785,14.44,74894.0,-3.07,-31.33,-31.51,0,*59
1487181686.08,47786,14.44,74890.8,-3.05,-31.33,-31.51,0,*58
1487181687.34,47787,14.44,74892.3,-3.05,-31.29,-31.51,0,*52
1487181688.57,47788,14.44,74892.3,-3.07,-31.33,-31.57,0,*52
1487181689.8,47789,14.44,74892.8,-3.05,-31.29,-31.45,0,*59
1487181691.07,47790,14.44,74892.3,-3.07,-31.23,-31.51,0,*5C
1487181692.31,47791,14.44,74888.5,-3.05,-31.29,-31.45,0,*50
1487181693.54,47792,14.44,74894.5,-3.07,-31.33,-31.39,0,*51
1487181694.78,47793,14.44,74894.8,-3.05,-31.17,-31.45,0,*5F
1487181695.98,47794,14.44,74898.5,-3.07,-31.29,-31.67,0,*57
1487181697.24,47795,14.44,74898.0,-3.05,-31.33,-31.61,0,*59
1487181698.49,47796,14.44,74896.5,-3.07,-31.39,-31.73,0,*51
1487181699.75,47797,14.44,74898.3,-3.05,-31.33,-31.51,0,*58
1487181700.98,47798,14.44,74898.3,-3.05,-31.17,-31.45,0,*54
1487181702.25,47799,14.44,74896.0,-3.05,-31.11,-31.29,0,*59
1487181703.48,47800,14.44,74898.5,-3.07,-31.33,-31.57,0,*5D
1487181704.71,47801,14.44,74896.5,-3.05,-31.17,-31.29,0,*51
1487181705.97,47802,14.44,74892.5,-3.05,-31.11,-31.33,0,*5F
1487181707.19,47803,14.44,74896.3,-3.05,-31.01,-31.17,0,*59
1487181708.43,47804,14.44,74896.0,-3.07,-31.17,-31.39,0,*57
1487181709.67,47805,14.44,74890.8,-3.05,-31.29,-31.45,0,*52
1487181710.92,47806,14.44,74896.5,-3.05,-31.11,-31.33,0,*5B
1487181712.16,47807,14.44,74898.0,-3.07,-31.29,-31.51,0,*57
1487181713.41,47808,14.44,74898.0,-3.05,-31.33,-31.73,0,*51
1487181714.65,47809,14.44,74894.5,-3.05,-31.17,-31.45,0,*53
1487181715.91,47810,14.44,74892.0,-3.05,-31.11,-31.17,0,*5A
1487181717.17,47811,14.44,74892.5,-3.05,-31.29,-31.51,0,*52
1487181718.42,47812,14.44,74898.8,-3.05,-31.51,-31.67,0,*5B
1487181719.65,47813,14.44,74894.0,-3.07,-31.39,-31.67,0,*56
1487181720.9,47814,14.44,74896.3,-3.07,-31.39,-31.51,0,*54
1487181722.16,47815,14.44,74896.5,-3.05,-31.29,-31.51,0,*56
1487181723.4,47816,14.44,74892.5,-3.05,-31.29,-31.45,0,*50
1487181724.63,47817,14.44,74896.8,-3.07,-31.33,-31.57,0,*5B
1487181725.86,47818,14.44,74894.8,-3.05,-31.17,-31.33,0,*52
1487181727.12,47819,14.44,74898.0,-3.05,-31.11,-31.29,0,*5E
1487181728.35,47820,14.44,74898.3,-3.05,-31.01,-31.29,0,*55
1487181729.57,47821,14.44,74898.3,-3.05,-31.01,-31.29,0,*54
1487181730.78,47822,14.44,74900.3,-3.07,-31.01,-31.17,0,*58
1487181732.01,47823,14.44,74896.8,-3.05,-31.01,-31.29,0,*56
1487181733.27,47824,14.44,74896.0,-3.05,-31.11,-31.33,0,*5B
1487181734.5,47825,14.44,74900.3,-3.05,-31.29,-31.33,0,*51
1487181735.73,47826,14.44,74898.8,-3.05,-31.17,-31.33,0,*5F
1487181736.93,47827,14.44,74900.8,-3.07,-31.17,-31.33,0,*5C
1487181738.17,47828,14.44,74904.0,-3.07,-31.05,-31.23,0,*51
1487181739.43,47829,14.44,74900.0,-3.05,-31.11,-31.33,0,*56
1487181740.68,47830,14.44,74900.0,-3.05,-31.11,-31.33,0,*5E
1487181741.92,47831,14.44,74902.3,-3.05,-31.17,-31.45,0,*58
1487181743.15,47832,14.44,74898.0,-3.05,-31.17,-31.29,0,*51
1487181744.41,47833,14.44,74896.8,-3.05,-31.11,-31.29,0,*56
1487181745.65,47834,14.44,74898.5,-3.05,-31.29,-31.45,0,*50
1487181746.89,47835,14.44,74896.8,-3.07,-31.33,-31.51,0,*5D
1487181748.11,47836,14.44,74898.5,-3.05,-31.01,-31.17,0,*5F
1487181749.37,47837,14.44,74900.5,-3.05,-31.11,-31.33,0,*59
1487181750.61,47838,14.44,74894.5,-3.07,-31.17,-31.39,0,*58
1487181751.86,47839,14.44,74894.8,-3.05,-31.33,-31.51,0,*53
1487181753.12,47840,14.44,74892.8,-3.05,-31.33,-31.61,0,*5E
1487181754.38,47841,14.44,74896.0,-3.05,-31.45,-31.61,0,*5E
1487181755.59,47842,14.44,74898.5,-3.07,-31.33,-31.67,0,*58
1487181756.84,47843,14.44,74898.3,-3.05,-31.33,-31.61,0,*5D
1487181758.1,47844,14.44,74900.0,-3.07,-31.51,-31.73,0,*5F
1487181759.32,47845,14.44,74898.8,-3.07,-31.39,-31.67,0,*55
1487181760.58,47846,14.44,74894.5,-3.05,-31.33,-31.61,0,*58
1487181761.84,47847,14.44,74898.3,-3.05,-31.45,-31.73,0,*5B
1487181763.07,47848,14.44,74894.3,-3.07,-31.39,-31.67,0,*58
1487181764.32,47849,14.44,74896.3,-3.07,-31.39,-31.73,0,*5C
1487181765.57,47850,14.44,74898.8,-3.07,-31.51,-31.73,0,*5A
1487181766.8,47851,14.44,74898.3,-3.07,-31.39,-31.67,0,*50
1487181768.06,47852,14.44,74896.5,-3.07,-31.51,-31.73,0,*58
1487181769.29,47853,14.44,74896.5,-3.07,-31.39,-31.67,0,*52
1487181770.54,47854,14.44,74898.8,-3.07,-31.51,-31.73,0,*5E
1487181771.79,47855,14.44,74898.3,-3.07,-31.51,-31.73,0,*5F
1487181773.02,47856,14.44,74900.3,-3.07,-31.51,-31.67,0,*59
1487181774.28,47857,14.44,74896.8,-3.07,-31.39,-31.57,0,*55
1487181775.53,47858,14.44,74896.8,-3.09,-31.39,-31.67,0,*57
1487181776.79,47859,14.44,74892.8,-3.09,-31.51,-31.67,0,*58
1487181778.04,47860,14.44,74898.3,-3.07,-31.51,-31.73,0,*59
1487181779.27,47861,14.44,74898.0,-3.07,-31.39,-31.67,0,*53
1487181780.53,47862,14.44,74898.0,-3.07,-31.39,-31.73,0,*55
1487181781.78,47863,14.44,74896.0,-3.09,-31.39,-31.67,0,*5F
1487181783.07,47864,14.44,74898.5,-3.09,-31.39,-31.61,0,*5E
1487181784.32,47865,14.44,74896.5,-3.09,-31.33,-31.57,0,*50
1487181785.58,47866,14.44,74898.0,-3.09,-31.57,-31.79,0,*5D
1487181786.86,47867,14.44,74896.5,-3.09,-31.51,-31.73,0,*50
1487181788.12,47868,14.44,74898.5,-3.09,-31.33,-31.51,0,*5B
1487181789.42,47869,14.44,74896.0,-3.09,-31.23,-31.39,0,*55
1487181790.68,47870,14.44,74894.0,-3.09,-31.33,-31.51,0,*52
1487181791.94,47871,14.44,74896.5,-3.09,-31.33,-31.39,0,*5D
1487181793.2,47872,14.44,74898.8,-3.09,-31.33,-31.51,0,*50
1487181794.46,47873,14.44,74896.0,-3.11,-31.39,-31.61,0,*51
1487181795.72,47874,14.44,74896.5,-3.09,-31.33,-31.51,0,*56
1487181797.01,47875,14.44,74894.5,-3.09,-31.23,-31.51,0,*56
1487181798.3,47876,14.44,74896.0,-3.09,-31.23,-31.39,0,*5B
1487181799.53,47877,14.44,74894.5,-3.11,-31.29,-31.57,0,*51
1487181800.82,47878,14.44,74900.0,-3.09,-31.23,-31.57,0,*5D
1487181802.07,47879,14.44,74898.0,-3.11,-31.39,-31.61,0,*5B
1487181803.33,47880,14.44,74900.8,-3.09,-31.39,-31.67,0,*52
1487181804.58,47881,14.44,74896.8,-3.09,-31.39,-31.67,0,*53
1487181805.86,47882,14.44,74896.8,-3.09,-31.39,-31.57,0,*53
1487181807.12,47883,14.44,74896.8,-3.09,-31.39,-31.67,0,*51
1487181808.38,47884,14.44,74898.3,-3.11,-31.39,-31.61,0,*59
1487181809.63,47885,14.44,74898.5,-3.09,-31.33,-31.57,0,*5E
1487181810.92,47886,14.44,74896.3,-3.09,-31.23,-31.51,0,*5A
1487181812.18,47887,14.44,74892.8,-3.09,-31.33,-31.57,0,*5C
1487181813.43,47888,14.44,74888.8,-3.09,-31.39,-31.67,0,*5A
1487181814.73,47889,14.44,74892.3,-3.09,-31.23,-31.39,0,*5B
1487181815.98,47890,14.44,74892.3,-3.09,-31.33,-31.57,0,*5A
1487181817.21,47891,14.44,74892.0,-3.11,-31.45,-31.73,0,*55
1487181818.49,47892,14.44,74890.5,-3.09,-31.51,-31.73,0,*5A
1487181819.73,47893,14.44,74890.0,-3.11,-31.45,-31.73,0,*57
1487181821.01,47894,14.44,74892.8,-3.09,-31.39,-31.73,0,*52
1487181822.24,47895,14.44,74894.3,-3.11,-31.29,-31.73,0,*5B
1487181823.47,47896,14.44,74890.5,-3.09,-31.01,-31.17,0,*59
1487181824.73,47897,14.44,74888.5,-3.09,-31.33,-31.57,0,*5D
1487181825.98,47898,14.44,74890.3,-3.09,-31.51,-31.67,0,*55
1487181827.24,47899,14.44,74888.8,-3.09,-31.39,-31.67,0,*5A
1487181828.5,47900,14.44,74892.8,-3.09,-31.33,-31.39,0,*5A
1487181829.73,47901,14.44,74894.8,-3.11,-31.33,-31.57,0,*5A
1487181830.96,47902,14.44,74892.8,-3.11,-31.29,-31.57,0,*52
1487181832.22,47903,14.44,74892.3,-3.09,-31.33,-31.51,0,*57
1487181833.47,47904,14.44,74896.8,-3.11,-31.39,-31.73,0,*53
1487181834.73,47905,14.44,74896.5,-3.09,-31.33,-31.57,0,*57
1487181836.02,47906,14.44,74888.5,-3.09,-31.23,-31.51,0,*53
1487181837.28,47907,14.44,74892.0,-3.11,-31.39,-31.61,0,*53
1487181838.55,47908,14.44,74894.3,-3.09,-31.39,-31.57,0,*50
1487181839.77,47909,14.44,74892.0,-3.11,-31.29,-31.45,0,*5A
1487181841.02,47910,14.44,74890.0,-3.11,-31.39,-31.73,0,*56
1487181842.28,47911,14.44,74886.5,-3.09,-31.33,-31.51,0,*54
1487181843.52,47912,14.44,74886.3,-3.11,-31.45,-31.61,0,*5C
1487181844.76,47913,14.44,74892.8,-3.11,-31.57,-31.79,0,*57
1487181846.04,47914,14.44,74890.5,-3.09,-31.51,-31.73,0,*55
1487181847.32,47915,14.44,74888.8,-3.09,-31.39,-31.73,0,*5A
1487181848.6,47916,14.44,74888.8,-3.09,-31.39,-31.57,0,*5F
1487181849.85,47917,14.44,74890.3,-3.11,-31.39,-31.61,0,*52
1487181851.11,47918,14.44,74894.5,-3.11,-31.57,-31.73,0,*56
1487181852.4,47919,14.44,74892.3,-3.09,-31.39,-31.51,0,*56
1487181853.61,47920,14.44,74892.8,-3.11,-31.29,-31.45,0,*51
1487181854.84,47921,14.44,74898.5,-3.11,-31.29,-31.57,0,*53
1487181856.1,47922,14.44,74892.5,-3.11,-31.23,-31.39,0,*52
1487181857.33,47923,14.44,74892.5,-3.11,-31.29,-31.57,0,*51
1487181858.58,47924,14.44,74894.0,-3.11,-31.39,-31.57,0,*57
1487181859.83,47925,14.44,74894.0,-3.11,-31.23,-31.45,0,*5E
1487181861.09,47926,14.44,74894.3,-3.11,-31.39,-31.61,0,*50
1487181862.32,47927,14.44,74896.3,-3.11,-31.57,-31.79,0,*50
1487181863.56,47928,14.44,74892.8,-3.11,-31.23,-31.45,0,*53
1487181864.8,47929,14.44,74898.0,-3.11,-31.29,-31.61,0,*5E
1487181866.06,47930,14.44,74894.0,-3.09,-31.17,-31.51,0,*51
1487181867.32,47931,14.44,74894.0,-3.11,-31.23,-31.39,0,*50
1487181868.56,47932,14.44,74898.5,-3.11,-31.05,-31.23,0,*5C
1487181869.82,47933,14.44,74894.0,-3.11,-31.39,-31.61,0,*54
1487181871.11,47934,14.44,74894.0,-3.09,-31.23,-31.51,0,*52
1487181872.37,47935,14.44,74896.0,-3.11,-31.11,-31.39,0,*55
1487181873.64,47936,14.44,74898.8,-3.11,-31.11,-31.39,0,*56
1487181874.88,47937,14.44,74896.5,-3.11,-31.23,-31.45,0,*5D
1487181876.13,47938,14.44,74892.8,-3.11,-31.39,-31.73,0,*5C
1487181877.35,47939,14.44,74892.3,-3.11,-31.29,-31.45,0,*59
1487181878.6,47940,14.44,74888.5,-3.11,-31.39,-31.57,0,*55
1487181879.83,47941,14.44,74892.3,-3.11,-31.39,-31.79,0,*58
1487181881.09,47942,14.44,74890.5,-3.11,-31.57,-31.73,0,*59
1487181882.32,47943,14.44,74892.3,-3.11,-31.45,-31.73,0,*5B
1487181883.61,47944,14.44,74892.8,-3.09,-31.39,-31.51,0,*5E
1487181884.84,47945,14.44,74894.5,-3.11,-31.29,-31.39,0,*59
1487181886.07,47946,14.44,74892.5,-3.11,-31.29,-31.39,0,*5A
1487181887.31,47947,14.44,74892.8,-3.11,-31.39,-31.45,0,*51
1487181888.57,47948,14.44,74892.8,-3.11,-31.39,-31.73,0,*5B
1487181889.8,47949,14.44,74896.3,-3.11,-31.39,-31.45,0,*5F
1487181891.03,47950,14.44,74894.3,-3.11,-31.05,-31.39,0,*53
1487181892.27,47951,14.44,74892.0,-3.09,-31.17,-31.33,0,*52
1487181893.51,47952,14.44,74894.5,-3.11,-31.23,-31.45,0,*5E
1487181894.75,47953,14.44,74896.8,-3.11,-31.11,-31.45,0,*5E
1487181896.0,47954,14.44,74892.3,-3.11,-31.23,-31.45,0,*58
1487181897.23,47955,14.44,74890.5,-3.11,-31.29,-31.57,0,*50
1487181898.49,47956,14.44,74892.5,-3.11,-31.39,-31.61,0,*57
1487181899.7,47957,14.44,74892.5,-3.11,-31.29,-31.45,0,*51
1487181900.94,47958,14.44,74892.8,-3.11,-31.11,-31.45,0,*55
1487181902.21,47959,14.44,74894.5,-3.11,-31.23,-31.39,0,*5E
1487181903.42,47960,14.44,74890.3,-3.11,-31.29,-31.45,0,*55
1487181904.68,47961,14.44,74894.5,-3.11,-31.39,-31.61,0,*53
1487181905.93,47962,14.44,74892.8,-3.11,-31.39,-31.57,0,*55
1487181907.16,47963,14.44,74892.5,-3.11,-31.29,-31.57,0,*55
1487181908.43,47964,14.44,74894.8,-3.11,-31.11,-31.39,0,*51
1487181909.67,47965,14.44,74892.0,-3.11,-31.39,-31.45,0,*51
1487181910.92,47966,14.44,74894.5,-3.11,-31.39,-31.57,0,*51
1487181912.17,47967,14.44,74894.3,-3.09,-31.39,-31.67,0,*5A
1487181913.43,47968,14.44,74892.5,-3.09,-31.33,-31.51,0,*5A
1487181914.67,47969,14.44,74892.8,-3.11,-31.45,-31.61,0,*50
1487181915.95,47970,14.44,74894.0,-3.13,-31.39,-31.39,0,*5C
1487181917.16,47971,14.44,74894.5,-3.11,-31.05,-31.29,0,*51
1487181918.39,47972,14.44,74896.0,-3.11,-31.29,-31.57,0,*55
1487181919.65,47973,14.44,74898.5,-3.11,-31.39,-31.61,0,*50
1487181920.86,47974,14.44,74894.5,-3.11,-31.29,-31.45,0,*50
1487181922.12,47975,14.44,74896.5,-3.11,-31.23,-31.57,0,*58
1487181923.38,47976,14.44,74894.8,-3.11,-30.95,-31.23,0,*54
1487181924.63,47977,14.44,74894.8,-3.11,-31.23,-31.29,0,*53
1487181925.85,47978,14.44,74894.8,-3.11,-31.29,-31.57,0,*5F
1487181927.11,47979,14.44,74896.3,-3.11,-31.39,-31.61,0,*5A
1487181928.37,47980,14.44,74896.3,-3.11,-31.23,-31.57,0,*52
1487181929.62,47981,14.44,74896.5,-3.11,-31.23,-31.45,0,*50
1487181930.88,47982,14.44,74898.8,-3.11,-31.11,-31.39,0,*59
1487181932.17,47983,14.44,74892.8,-3.13,-31.11,-31.23,0,*51
1487181933.43,47984,14.44,74894.8,-3.11,-31.23,-31.39,0,*5E
1487181934.7,47985,14.44,74890.3,-3.09,-31.33,-31.61,0,*5A
1487181935.95,47986,14.44,74894.8,-3.13,-31.29,-31.73,0,*5A
1487181937.19,47987,14.44,74890.5,-3.11,-31.45,-31.61,0,*50
1487181938.45,47988,14.44,74892.5,-3.13,-31.45,-31.73,0,*5E
1487181939.73,47989,14.44,74894.5,-3.13,-31.57,-31.73,0,*5C
1487181940.96,47990,14.44,74892.3,-3.13,-31.45,-31.79,0,*5D
1487181942.22,47991,14.44,74898.3,-3.13,-31.45,-31.61,0,*55
1487181943.5,47992,14.44,74892.8,-3.13,-31.39,-31.73,0,*5E
1487181944.78,47993,14.44,74894.8,-3.13,-31.39,-31.57,0,*59
1487181946.03,47994,14.44,74894.3,-3.13,-31.29,-31.57,0,*5F
1487181947.28,47995,14.44,74892.0,-3.13,-31.39,-31.79,0,*53
1487181948.52,47996,14.44,74890.5,-3.13,-31.45,-31.79,0,*5B
1487181949.8,47997,14.44,74888.3,-3.13,-31.39,-31.61,0,*58
1487181951.06,47998,14.44,74898.8,-3.13,-31.45,-31.61,0,*5C
1487181952.3,47999,14.44,74894.0,-3.17,-31.45,-31.67,0,*5F
1487181953.55,48000,14.44,74892.8,-3.13,-31.45,-31.73,0,*58
1487181954.79,48001,14.44,74894.3,-3.13,-31.45,-31.79,0,*53
1487181956.04,48002,14.44,74898.8,-3.17,-31.51,-31.79,0,*51
1487181957.31,48003,14.44,74894.8,-3.13,-31.23,-31.45,0,*5E
1487181958.57,48004,14.44,74892.5,-3.17,-31.33,-31.51,0,*59
1487181959.83,48005,14.44,74894.8,-3.17,-31.61,-31.79,0,*55
1487181961.11,48006,14.44,74892.8,-3.17,-31.61,-31.85,0,*55
1487181962.39,48007,14.44,74892.5,-3.13,-31.39,-31.73,0,*54
1487181963.65,48008,14.44,74896.0,-3.17,-31.33,-31.61,0,*56
1487181964.88,48009,14.44,74892.8,-3.17,-31.45,-31.67,0,*50
1487181966.11,48010,14.44,74894.0,-3.17,-31.33,-31.67,0,*59
1487181967.4,48011,14.44,74894.0,-3.13,-31.11,-31.39,0,*57
1487181968.66,48012,14.44,74896.5,-3.17,-31.29,-31.51,0,*55
1487181969.89,48013,14.44,74896.0,-3.17,-31.01,-31.29,0,*51
1487181971.12,48014,14.44,74896.8,-3.13,-31.05,-31.29,0,*56
1487181972.38,48015,14.44,74896.3,-3.13,-31.11,-31.29,0,*52
1487181973.62,48016,14.44,74898.0,-3.17,-31.17,-31.45,0,*59
1487181974.88,48017,14.44,74896.5,-3.17,-31.29,-31.51,0,*50
1487181976.11,48018,14.44,74898.8,-3.17,-31.01,-31.17,0,*57
1487181977.37,48019,14.44,74894.3,-3.13,-30.95,-31.29,0,*53
1487181978.61,48020,14.44,74892.5,-3.17,-31.17,-31.29,0,*56
1487181979.84,48021,14.44,74894.3,-3.17,-31.17,-31.29,0,*57
1487181981.1,48022,14.44,74894.3,-3.17,-31.29,-31.51,0,*56
1487181982.39,48023,14.44,74894.8,-3.13,-31.11,-31.39,0,*56
1487181983.62,48024,14.44,74894.3,-3.17,-31.17,-31.33,0,*59
1487181984.91,48025,14.44,74894.3,-3.13,-31.11,-31.39,0,*50
1487181986.14,48026,14.38,74888.8,-3.17,-31.01,-31.17,0,*5A
1487181987.39,48027,14.44,74894.0,-3.13,-31.05,-31.11,0,*5D
1487181988.66,48028,14.44,74894.0,-3.13,-31.23,-31.45,0,*57
1487181989.95,48029,14.44,74894.8,-3.13,-31.23,-31.39,0,*5D
1487181991.21,48030,14.44,74892.8,-3.13,-31.29,-31.39,0,*5F
1487181992.46,48031,14.44,74894.0,-3.13,-30.77,-31.05,0,*5B
1487181993.72,48032,14.44,74896.3,-3.13,-30.89,-31.05,0,*59
1487181994.98,48033,14.44,74892.3,-3.13,-30.77,-31.05,0,*59
1487181996.24,48034,14.44,74892.3,-3.13,-31.05,-31.23,0,*5E
1487181997.49,48035,14.44,74892.5,-3.13,-31.05,-31.11,0,*5E
1487181998.78,48036,14.44,74894.0,-3.13,-30.89,-31.11,0,*58
1487182000.01,48037,14.44,74890.8,-3.11,-30.89,-31.05,0,*5E
1487182001.24,48038,14.44,74892.5,-3.11,-31.01,-31.23,0,*54
1487182002.48,48039,14.44,74888.5,-3.11,-31.29,-31.39,0,*54
1487182003.69,48040,14.44,74888.8,-3.11,-31.29,-31.45,0,*51
1487182004.98,48041,14.44,74892.8,-3.09,-31.23,-31.39,0,*58
1487182006.21,48042,14.44,74888.8,-3.11,-31.29,-31.57,0,*50
1487182007.45,48043,14.44,74890.8,-3.11,-31.29,-31.39,0,*59
1487182008.71,48044,14.44,74892.0,-3.11,-31.23,-31.39,0,*54
1487182009.95,48045,14.44,74890.3,-3.11,-31.05,-31.23,0,*5A
1487182011.18,48046,14.44,74890.3,-3.11,-31.05,-31.23,0,*59
1487182012.41,48047,14.44,74892.5,-3.11,-30.89,-31.05,0,*59
1487182013.64,48048,14.44,74892.3,-3.09,-31.01,-31.05,0,*5E
1487182014.91,48049,14.44,74890.3,-3.09,-31.01,-31.23,0,*5B
1487182016.14,48050,14.44,74888.3,-3.09,-31.01,-31.17,0,*54
1487182017.37,48051,14.44,74892.5,-3.11,-31.05,-31.23,0,*5F
1487182018.61,48052,14.44,74892.8,-3.09,-31.01,-31.17,0,*56
1487182019.88,48053,14.44,74892.0,-3.11,-31.11,-31.23,0,*58
1487182021.14,48054,14.44,74892.8,-3.09,-31.17,-31.39,0,*5B
1487182022.4,48055,14.44,74896.8,-3.11,-31.11,-31.23,0,*5E
1487182023.62,48056,14.44,74894.5,-3.11,-31.29,-31.45,0,*56
1487182024.88,48057,14.44,74896.5,-3.11,-31.11,-31.39,0,*57
1487182026.12,48058,14.44,74894.0,-3.11,-31.11,-31.29,0,*59
1487182027.37,48059,14.44,74890.5,-3.11,-31.23,-31.45,0,*53
1487182028.66,48060,14.44,74892.8,-3.09,-31.23,-31.39,0,*5B
1487182029.89,48061,14.44,74892.5,-3.11,-31.29,-31.57,0,*51
1487182031.13,48062,14.44,74892.5,-3.11,-31.23,-31.45,0,*5B
1487182032.35,48063,14.44,74894.5,-3.11,-31.29,-31.45,0,*50
1487182033.58,48064,14.44,74898.0,-3.09,-31.01,-31.17,0,*53
1487182034.79,48065,14.44,74894.0,-3.11,-31.05,-31.29,0,*52
1487182036.02,48066,14.44,74898.3,-3.11,-31.05,-31.23,0,*5B
1487182037.25,48067,14.44,74898.0,-3.09,-31.01,-31.05,0,*53
1487182038.52,48068,14.44,74894.3,-3.11,-31.11,-31.39,0,*5B
1487182039.78,48069,14.44,74892.0,-3.09,-31.05,-31.23,0,*5D
1487182041.04,48070,14.44,74894.5,-3.09,-30.89,-31.17,0,*57
1487182042.28,48071,14.44,74896.0,-3.09,-31.01,-31.17,0,*57
1487182043.5,48072,14.44,74896.8,-3.09,-31.05,-31.33,0,*56
1487182044.77,48073,14.44,74898.0,-3.09,-30.89,-31.17,0,*54
1487182045.97,48074,14.44,74894.8,-3.11,-31.01,-31.05,0,*58
1487182047.24,48075,14.44,74896.8,-3.11,-31.23,-31.39,0,*56
1487182048.53,48076,14.44,74896.8,-3.09,-30.73,-30.89,0,*52
1487182049.82,48077,14.44,74892.5,-3.09,-30.73,-30.89,0,*53
1487182051.08,48078,14.44,74896.8,-3.09,-30.55,-30.83,0,*52
1487182052.37,48079,14.44,74898.3,-3.09,-30.55,-30.73,0,*5C
1487182053.58,48080,14.44,74896.0,-3.07,-30.83,-31.01,0,*5B
1487182054.81,48081,14.44,74898.8,-3.07,-30.89,-31.01,0,*50
1487182056.05,48082,14.44,74898.5,-3.07,-31.17,-31.39,0,*5E
1487182057.29,48083,14.44,74896.3,-3.07,-30.89,-31.17,0,*55
1487182058.57,48084,14.44,74898.0,-3.05,-30.95,-31.11,0,*5B
1487182059.8,48085,14.44,74894.8,-3.05,-31.01,-31.17,0,*50
1487182061.03,48086,14.44,74894.0,-3.07,-31.05,-31.39,0,*59
1487182062.26,48087,14.44,74892.5,-3.05,-31.01,-31.17,0,*52
1487182063.53,48088,14.44,74890.8,-3.07,-31.11,-31.23,0,*59
1487182064.76,48089,14.44,74894.3,-3.07,-31.17,-31.39,0,*55
1487182066.02,48090,14.44,74888.5,-3.05,-30.83,-31.11,0,*59
1487182067.25,48091,14.38,74884.3,-3.05,-31.17,-31.33,0,*54
1487182068.48,48092,14.44,74886.8,-3.05,-31.17,-31.33,0,*57
1487182069.69,48093,14.38,74884.3,-3.07,-30.83,-31.01,0,*59
1487182070.92,48094,14.44,74888.0,-3.05,-31.01,-31.17,0,*50
1487182072.18,48095,14.44,74894.0,-3.07,-31.23,-31.39,0,*5F
1487182073.44,48096,14.44,74894.5,-3.05,-31.17,-31.51,0,*57
1487182074.65,48097,14.44,74894.3,-3.07,-31.17,-31.33,0,*50
1487182075.91,48098,14.44,74888.8,-3.05,-30.95,-31.17,0,*50
1487182077.14,48099,14.44,74892.5,-3.05,-31.29,-31.45,0,*50
1487182078.38,48100,14.44,74892.5,-3.07,-31.33,-31.39,0,*53
1487182079.61,48101,14.44,74892.5,-3.05,-31.17,-31.45,0,*5D
1487182080.84,48102,14.44,74892.0,-3.05,-31.17,-31.29,0,*54
1487182082.07,48103,14.44,74894.5,-3.05,-31.01,-31.29,0,*52
1487182083.31,48104,14.44,74888.5,-3.05,-30.83,-31.17,0,*53
1487182084.54,48105,14.44,74888.3,-3.07,-30.95,-31.05,0,*54
1487182085.8,48106,14.44,74886.0,-3.05,-30.95,-31.17,0,*56
1487182087.09,48107,14.38,74884.0,-3.05,-30.95,-31.11,0,*51
1487182088.32,48108,14.38,74886.0,-3.03,-30.89,-31.05,0,*50
1487182089.56,48109,14.44,74890.0,-3.03,-30.77,-31.05,0,*50
1487182090.82,48110,14.44,74888.8,-3.03,-30.89,-30.89,0,*5C
1487182092.12,48111,14.44,74892.5,-3.01,-30.77,-30.89,0,*5E
1487182093.39,48112,14.44,74884.8,-3.03,-30.77,-30.89,0,*5F
1487182094.65,48113,14.44,74882.8,-3.03,-30.61,-30.89,0,*59
1487182095.94,48114,14.44,74886.3,-3.01,-30.77,-30.89,0,*5B
1487182097.2,48115,14.44,74884.0,-3.03,-30.73,-30.95,0,*51
1487182098.47,48116,14.44,74886.8,-3.03,-30.61,-30.89,0,*5C
1487182099.72,48117,14.44,74880.0,-3.01,-31.05,-31.11,0,*5C